Other Surface Observations
Issued by NWS Tucson, AZ

Home | Current Version | Previous Version | Text Only | Print | Product List | Glossary On
Versions: 1 2 3 4 5 6 7 8 9 10 11 12 13 14 15 16 17 18 19 20 21 22 23 24 25 26 27 28 29 30 31 32 33 34 35 36 37 38 39 40 41 42 43 44 45 46 47 48 49 50
061
SXUS55 KTWC 202315
OSOTWC

WEATHER ROUNDUP FOR SOUTHEAST ARIZONA
NATIONAL WEATHER SERVICE TUCSON AZ
415 PM MST MON FEB 20 2017

AZZ504>506-514-210015-
LOCATION       SKY/WX    TMP DP  RH WIND       PRES   REMARKS
TUCSON         SUNNY     67  41  38 W8        30.24S
DAVIS-MONTHAN  SUNNY     65  42  42 NW7       30.23S
CHILDRENS PARK N/A      N/A N/A  44 W5                PIMA CO DEQ
ALVERNON/22ND  N/A       66 N/A N/A SW4               PIMA CO DEQ
CHERRY/GLENN   N/A       68 N/A N/A W4                PIMA CO DEQ
TANGERINE      N/A       65 N/A N/A W5                PIMA CO DEQ
CONTL RANCH    N/A       66  42  42 W6                PIMA CO DEQ
GRANT/1ST      N/A       66  42  42 W5                PIMA CO DEQ
CRAYCROFT/22ND N/A       66  42  42 N/A               PIMA CO DEQ
GOLFLINKS/KOLB N/A       65  43  44 NW2               PIMA CO DEQ
AJO/12TH       N/A       65  41  42 SW4               PIMA CO DEQ
FAIRGROUNDS    N/A       63 N/A N/A N/A               PIMA CO DEQ
SAGUARO        N/A       66  45  46 SW3G10            *SABINO CYN
SAN CARLOS     N/A       67  41  39 SW5G10            *SAN CARLOS
GREEN VALLEY   N/A       64  39  40 SE7               PIMA CO DEQ
HORSE CAMP CYN N/A       58  40  52 W6G15             *ARAVAIPA CYN
RINCON MTNS    NOT AVBL
$$

AZZ509>511-210015-
LOCATION       SKY/WX    TMP DP  RH WIND       PRES   REMARKS
SAFFORD        SUNNY     65  38  36 NW14      30.19F
STRAY HORSE    N/A       49  37  62 N/A               *
TRAIL CABIN    N/A       56  34  43 W4G10             *N OF GRANVILLE
BLACK HILLS    NOT AVBL
DRY LAKE       N/A       51  38  61 NW3               *NATANES MTNS
NOON CREEK     NOT AVBL
COLUMBINE      N/A       50  30  45 NE3               *PINALENO MTNS
GUTHRIE        N/A       52  37  56 W6G15             *SW OF GUTHRIE
$$

AZZ502-503-513-210015-
LOCATION       SKY/WX    TMP DP  RH WIND       PRES   REMARKS
NOGALES        SUNNY     65  37  35 W8        30.23S
SELLS          N/A       67  46  46 NE4               *
SASABE         N/A       66  42  41 NE7G11            *ALTAR VLY
HOPKINS        N/A       53  39  60 E3                *SANTA RITA MTNS
CARR CYN       N/A       63  37  38 NW3               *W OF HEREFORD
$$

AZZ507-508-512-210015-
LOCATION       SKY/WX    TMP DP  RH WIND       PRES   REMARKS
SIERRA VISTA   SUNNY     62  37  38 VRB5      30.26S
DOUGLAS        SUNNY     63  38  39 NW10      30.24S
EMPIRE MTNS    NOT AVBL
MULESHOE RANCH N/A       61  38  43 W8G17             *PRESERVE
HEADQUARTERS   NOT AVBL
$$

.............................NOTES.............................
THIS IS AN AUTOMATED COLLECTIVE WITH MINIMAL QUALITY CONTROL.
PIMA CO DEQ SITES HAVE NONSTANDARD WIND SENSOR HEIGHTS.
PIMA CO DEQ SITES DO NOT REPORT WIND GUSTS.
* INDICATES WIND SENSORS LOCATED AT 20 FEET INSTEAD OF 33 FEET.
..............................KEY..............................
SKY/WX - SKY CONDITION/WEATHER
TMP    - TEMPERATURE IN FAHRENHEIT
DP     - DEWPOINT IN FAHRENHEIT
RH     - RELATIVE HUMIDITY IN PERCENT
WIND   - DIRECTION AND SPEED IN MILES PER HOUR (MPH)
VRB    - VARIABLE WIND DIRECTION
PRES   - MEAN SEA LEVEL PRESSURE IN INCHES OF MERCURY
         F - FALLING PRESSURE   R - RISING PRESSURE
         S - STEADY PRESSURE
VSB    - VISIBILITY IN MILES
HX     - HEAT INDEX IN FAHRENHEIT
WCI    - WIND CHILL INDEX IN FAHRENHEIT
N/A    - NOT AVAILABLE
AFB    - AIR FORCE BASE
         DAVIS-MONTHAN IS DAVIS-MONTHAN AIR FORCE BASE
CYN    - CANYON
MTNS   - MOUNTAINS
NCA    - NATIONAL CONSERVATION AREA
NR     - NEAR
VLY    - VALLEY
CONTL  - CONTINENTAL
PIMA CO DEQ - PIMA COUNTY DEPT OF ENVIRONMENTAL QUALITY



USA.gov is the U.S. government's official web portal to all federal, state and local government web resources and services.